Theta_e
296 296 296 297 296 295 295 295 295 295 296 296 295 298 297 298 291 290 298 301 300 298 303 307 310 312 315 315 317 318 320 321 320 319 318 318 318 319 319 320 320 318 317 317 318 318 318 318 317 317 317 317 317 316 315 315 316 315 316 315 314 313 312 311 311 311 312 312 312 312 312 312 312 312 312 313 313 313 313 313 314 313 312 311 310 309 308
295 296 296 296 295 295 295 295 296 296 296 296 296 298 298 297 298 299 299 301 301 302 303 307 312 316 317 316 318 318 318 318 318 317 316 317 318 319 319 318 317 317 317 317 317 317 316 316 316 315 315 314 316 316 316 316 315 315 315 314 312 311 311 310 310 311 311 311 311 311 311 311 311 312 312 312 312 312 311 312 312 312 311 311 309 308 307
293 296 296 296 296 295 294 295 296 296 297 296 296 298 300 301 299 299 299 301 300 304 311 309 316 318 318 317 316 316 318 318 317 316 316 316 317 318 316 315 315 315 316 316 316 315 315 315 315 314 313 313 314 315 316 317 316 315 314 313 312 311 310 310 310 311 310 310 311 311 311 311 311 311 311 312 311 311 311 311 311 311 311 310 309 308 306
290 294 294 295 296 296 294 294 295 295 295 295 296 294 299 298 296 298 299 297 297 305 310 311 313 316 315 314 314 315 316 317 316 315 315 315 315 314 313 313 314 314 314 315 314 314 314 315 314 313 313 314 313 313 314 314 315 315 314 312 311 310 310 310 310 310 310 310 310 310 311 310 310 311 311 310 310 310 310 310 310 310 310 309 309 308 306
288 294 295 294 295 294 290 291 295 296 298 298 298 298 299 300 302 297 292 295 306 309 310 309 310 313 315 314 314 314 316 317 317 315 314 314 314 313 313 312 313 313 313 313 314 314 314 314 313 314 314 313 313 313 313 314 314 314 312 311 311 310 310 310 310 310 310 310 309 310 310 310 311 310 309 309 309 309 309 309 309 308 308 308 308 308 306
288 293 295 295 290 283 285 299 302 300 298 297 296 297 299 302 302 299 301 304 311 313 312 312 311 313 313 314 316 317 316 315 316 315 314 313 313 312 313 313 313 314 314 313 314 314 314 314 314 314 315 314 313 314 313 313 313 313 311 311 311 310 309 309 310 310 309 309 309 309 310 309 310 309 309 308 310 310 310 309 308 308 308 308 307 306 304
288 292 292 287 282 284 302 304 307 304 301 300 298 299 299 300 301 302 302 305 310 313 314 314 314 315 315 316 314 317 318 318 316 313 312 311 311 311 312 313 314 314 313 313 312 312 313 314 314 314 315 313 313 312 312 311 311 311 311 310 310 310 309 309 310 309 309 309 309 309 309 309 309 308 309 310 309 309 309 308 308 307 307 306 306 304 303
291 289 287 280 283 298 302 306 306 308 304 304 301 298 300 301 301 301 301 303 309 312 312 314 316 315 314 315 315 317 318 319 315 312 310 311 311 311 313 313 313 312 312 312 312 313 313 313 313 313 311 311 311 311 312 311 311 311 310 310 309 309 309 309 309 309 309 308 308 308 308 308 307 307 308 308 307 307 307 307 307 307 306 306 305 304 303
286 287 287 286 296 296 300 301 303 303 300 299 297 291 296 303 303 302 301 302 311 312 312 313 314 315 314 311 312 318 318 317 316 313 312 312 312 312 314 314 313 314 314 314 314 313 313 312 311 310 311 311 310 310 310 310 310 310 309 308 308 309 309 309 309 309 309 308 308 307 307 307 306 307 307 306 306 307 306 306 305 305 304 304 304 303 302
291 288 286 286 286 283 291 300 305 308 307 307 307 299 296 304 304 304 303 303 311 312 312 312 312 313 309 306 309 315 317 316 314 314 314 314 313 314 314 314 314 314 314 314 313 312 312 311 311 311 311 311 310 309 309 309 309 308 308 308 308 309 308 309 309 309 308 308 307 307 307 306 307 307 307 307 307 308 305 304 303 302 302 302 303 303 302
289 287 285 285 283 286 299 300 306 307 308 307 308 298 292 302 304 304 304 302 312 312 312 312 313 308 304 304 309 315 316 314 314 313 313 313 314 315 314 313 312 313 313 312 312 312 311 310 311 312 311 311 309 308 308 308 308 307 307 307 308 308 308 308 308 308 308 308 307 307 306 306 307 306 306 306 307 308 307 305 304 303 302 300 301 301 301
289 288 286 285 288 290 299 305 307 307 308 308 301 287 288 303 305 306 305 304 312 313 313 312 310 306 301 305 310 317 316 314 315 313 312 312 313 313 313 314 314 313 313 313 311 311 310 310 312 311 311 310 309 308 308 308 307 306 307 307 308 308 308 308 308 308 308 308 307 307 306 306 307 306 307 307 307 306 306 305 304 304 303 302 301 300 300
289 287 288 289 291 298 306 305 308 307 312 305 290 285 293 307 306 306 308 306 313 314 313 312 307 310 313 314 316 318 317 315 314 314 314 313 313 312 313 313 310 313 313 312 311 311 311 311 311 311 310 309 308 308 308 307 306 306 307 307 307 307 307 307 307 306 307 307 306 306 306 306 307 307 307 307 306 305 305 305 305 305 305 304 303 302 301
288 289 287 288 291 301 306 307 308 310 304 290 288 304 310 313 312 308 307 307 315 315 314 313 313 313 317 317 317 316 315 314 314 313 313 313 314 314 313 311 312 313 312 312 311 311 311 311 311 311 311 308 305 306 305 304 304 305 305 305 305 305 305 304 305 305 306 306 306 307 307 306 305 305 306 307 307 306 306 306 306 305 305 304 303 303 302
291 289 287 286 283 295 308 306 305 308 295 296 306 311 313 314 315 310 306 308 317 316 315 316 315 316 316 316 316 315 314 314 313 312 312 313 312 311 311 312 312 312 311 310 310 310 311 311 308 308 307 305 305 305 304 304 305 305 305 305 304 304 304 304 304 305 305 306 307 307 307 307 306 305 306 306 306 307 306 305 305 304 304 303 302 302 302
287 286 285 286 295 303 310 305 296 304 306 311 313 312 309 313 315 314 310 309 316 317 316 313 316 316 315 316 316 314 314 314 313 313 313 313 312 312 312 312 311 311 310 310 310 310 310 310 309 309 306 304 304 304 303 305 305 305 305 305 304 304 304 304 305 305 305 306 307 307 306 306 305 305 305 305 305 305 305 304 304 303 303 303 302 301 300
291 290 295 301 306 307 309 311 310 310 312 314 314 313 312 312 312 316 314 314 316 318 315 315 315 314 314 314 315 313 313 313 312 311 312 311 311 311 311 311 311 311 310 309 309 309 309 309 307 306 305 304 303 302 304 305 305 305 305 305 305 304 304 305 305 305 305 306 306 306 307 307 305 305 306 307 305 306 306 305 304 302 302 302 301 299 298
304 306 307 308 307 308 309 313 315 312 312 314 315 314 311 314 315 316 315 316 315 315 317 314 315 314 313 313 313 313 313 312 311 310 310 311 311 311 311 310 310 310 310 309 308 307 306 306 306 306 305 304 303 303 305 306 306 306 305 305 304 304 304 304 304 304 304 304 304 305 306 305 306 306 305 304 303 304 305 305 305 303 301 300 299 299 298
296 291 303 304 307 310 310 312 314 315 315 314 315 314 314 314 316 316 317 317 317 316 316 315 315 314 313 311 312 312 312 311 310 309 309 310 311 311 310 309 308 309 308 307 306 305 305 306 305 305 305 305 305 306 306 306 306 305 305 305 304 304 304 303 304 304 304 303 303 304 305 304 305 305 304 303 301 300 301 304 303 303 303 301 299 298 298
294 296 302 306 309 308 310 310 309 310 311 313 315 316 317 316 316 317 317 317 317 317 315 315 314 314 313 311 310 310 310 310 309 309 309 309 309 310 311 310 310 309 308 307 305 304 304 305 305 305 305 305 305 306 306 306 306 305 305 304 304 303 303 303 303 303 302 296 299 299 298 298 299 302 301 299 297 296 297 296 300 300 298 298 298 298 299
300 304 304 305 307 307 308 311 314 313 314 313 314 315 315 316 315 315 316 316 315 318 316 316 314 312 312 311 311 310 310 310 309 309 309 309 309 309 309 309 309 308 308 307 306 304 303 304 305 305 304 305 305 306 306 306 306 305 304 302 303 303 302 302 302 301 302 302 300 299 297 296 294 294 297 298 296 294 293 293 295 299 299 298 297 297 295
291 295 300 305 296 294 303 308 311 312 314 314 313 314 313 313 313 314 313 314 316 316 316 316 314 312 311 312 311 310 310 309 309 309 309 309 309 309 310 310 309 309 309 307 304 303 303 304 304 303 304 304 305 305 305 305 305 304 303 303 302 302 301 301 301 302 302 301 300 298 296 294 293 293 288 289 293 294 293 290 289 290 291 294 296 297 293
293 302 306 309 307 306 309 311 312 314 314 313 312 311 311 312 314 314 315 313 313 314 315 317 315 311 310 310 311 310 310 309 310 310 310 309 308 308 309 308 306 306 305 304 304 303 303 303 303 303 303 304 304 305 305 305 304 303 303 302 301 301 301 301 300 301 301 300 300 298 295 294 293 292 292 292 288 288 289 289 289 289 289 289 289 289 296
306 308 308 309 308 306 309 311 312 312 314 314 312 312 312 313 313 314 314 314 313 313 313 315 315 313 311 311 311 309 309 309 309 309 309 309 308 307 306 306 304 304 303 303 302 302 303 303 303 303 303 304 304 305 305 304 304 304 303 302 300 300 301 300 299 299 298 298 297 295 294 294 293 292 291 291 291 290 288 289 289 289 289 289 289 289 289
304 309 310 311 310 310 312 312 312 313 314 314 312 311 312 313 313 314 314 313 314 313 312 313 314 314 312 311 311 309 308 308 308 307 306 305 305 305 305 304 303 303 303 303 303 302 302 302 302 303 303 303 304 304 304 304 304 303 302 302 301 301 301 300 299 297 296 296 295 295 295 294 294 293 292 291 290 291 292 289 289 289 289 289 289 289 290
309 309 310 311 311 310 311 311 310 311 311 313 312 313 312 311 314 313 314 314 314 314 314 314 313 313 312 311 310 309 308 308 306 305 306 305 305 304 304 303 303 303 303 303 302 302 302 302 302 302 302 303 303 304 304 304 304 303 303 303 303 301 300 300 298 297 297 297 296 296 296 295 295 294 293 293 292 292 291 291 293 292 291 290 289 289 289
310 310 309 307 307 308 311 308 306 311 311 312 312 312 313 314 311 312 313 314 314 314 314 315 314 312 311 311 308 308 307 306 305 306 306 305 304 304 304 304 303 303 302 302 302 301 300 302 302 302 302 303 304 304 304 304 304 303 303 303 302 296 292 295 299 298 298 298 298 297 297 297 296 295 295 294 294 293 293 292 292 292 292 295 292 289 294
308 309 309 304 301 305 307 310 311 311 311 311 311 311 312 312 312 311 311 312 312 313 311 311 312 311 309 309 308 306 306 305 305 306 305 306 305 305 305 304 304 303 303 302 302 302 301 301 301 301 301 303 303 304 303 303 304 303 302 302 301 301 302 300 300 300 300 299 299 300 299 298 298 296 296 295 295 296 295 296 295 294 294 294 295 292 290
306 307 309 309 309 309 310 310 310 310 310 311 311 311 311 310 310 310 310 310 310 308 308 310 310 310 310 309 308 306 305 305 304 303 305 305 305 305 305 304 304 303 303 301 301 302 302 301 301 301 301 303 303 304 304 304 303 302 301 301 300 300 300 301 301 301 302 302 303 302 297 297 298 299 298 299 298 298 298 298 296 296 296 296 296 297 293
306 307 307 308 308 308 309 307 307 308 309 310 309 309 310 309 307 308 309 308 309 307 307 307 308 308 309 308 306 305 304 304 305 305 306 306 306 305 304 303 303 303 302 301 301 302 302 301 301 300 301 303 304 304 304 304 303 303 302 301 301 300 300 301 302 303 302 301 298 292 297 299 300 300 298 298 298 298 298 299 299 298 298 297 295 295 293
305 307 307 307 307 307 308 306 307 307 307 308 308 308 308 308 307 307 307 308 308 307 307 306 305 305 304 304 305 305 305 306 305 305 305 305 304 304 303 303 301 299 299 300 301 302 302 302 302 301 303 304 304 304 304 304 302 302 301 301 302 295 292 293 296 301 299 297 297 298 299 299 299 298 295 297 299 298 298 297 297 298 298 299 299 297 297
305 305 305 306 304 305 305 305 305 305 306 307 307 306 307 306 305 305 305 305 305 306 305 305 303 302 302 303 304 304 304 304 303 302 304 303 303 303 303 303 302 298 301 302 302 302 302 302 301 302 304 304 304 304 304 303 302 300 300 297 300 300 296 294 298 298 297 298 298 298 297 300 300 298 297 296 297 296 297 296 298 297 299 299 299 299 298
302 301 301 302 303 303 303 303 304 303 304 305 306 307 307 307 307 305 305 305 304 304 304 303 303 302 302 302 302 302 301 301 301 301 301 300 301 302 302 302 302 302 302 303 303 303 302 301 302 303 304 304 304 303 303 302 302 301 301 301 300 300 296 295 295 298 297 297 298 299 301 300 298 299 297 299 299 296 299 297 296 296 297 300 300 300 296
302 301 301 302 302 301 302 302 303 303 304 304 305 306 306 306 306 305 305 304 304 303 303 303 302 301 301 300 300 300 299 298 297 297 298 299 299 300 300 301 302 302 302 302 302 302 302 302 303 304 304 303 303 304 303 302 301 301 302 301 300 299 299 297 296 297 297 297 299 300 299 297 298 299 296 298 299 299 297 296 297 297 299 301 302 297 291
304 303 304 304 305 305 305 304 303 303 302 302 303 304 305 305 305 304 303 303 303 304 304 303 302 301 301 300 300 299 298 297 297 297 298 298 298 299 301 301 301 301 301 301 302 302 302 302 303 303 304 303 303 304 304 303 302 301 301 301 298 298 298 296 297 297 297 298 299 299 298 298 298 296 296 300 301 299 298 298 298 296 297 298 299 297 292
304 304 303 303 304 304 304 304 304 303 303 302 303 303 303 303 303 302 302 303 304 304 303 302 301 301 300 299 298 297 297 297 296 296 296 297 298 300 301 300 300 300 300 300 302 302 302 302 295 295 303 303 303 303 304 303 302 301 301 300 298 298 297 296 297 297 298 299 299 299 299 296 301 298 298 301 302 301 299 297 296 297 297 297 296 297 295
304 303 303 303 304 304 304 304 304 304 303 303 302 302 302 302 302 303 303 303 304 304 303 302 301 300 299 299 299 298 297 297 296 296 296 297 299 300 301 300 300 299 300 299 301 302 302 301 292 291 299 302 302 303 302 292 302 300 300 300 299 298 297 297 299 297 299 300 298 299 295 296 302 300 299 301 301 300 300 300 296 298 298 297 297 298 295
303 303 303 304 304 304 304 304 304 304 303 302 302 302 301 302 302 302 302 302 303 304 303 302 301 301 300 300 298 297 297 297 297 297 298 298 300 300 301 300 299 300 299 300 303 303 302 296 290 297 302 302 303 302 296 290 293 299 299 299 299 298 297 298 298 297 298 300 296 299 299 297 299 301 300 300 300 300 299 300 299 298 299 299 298 297 297
302 303 304 304 304 304 303 304 304 303 303 301 301 301 302 301 301 301 301 301 302 302 303 302 301 300 299 298 297 297 297 297 298 298 299 299 300 299 299 302 303 303 301 303 307 301 298 296 302 303 302 302 303 303 296 292 293 299 298 299 300 298 297 298 299 299 298 300 299 299 299 298 298 298 299 298 298 296 295 297 300 301 300 301 300 299 298
302 303 303 303 302 303 303 303 303 302 302 303 302 300 301 300 301 301 300 300 301 300 301 301 300 298 298 297 297 297 298 299 300 300 300 300 300 300 301 303 302 303 303 296 301 300 295 293 299 303 302 302 303 302 300 299 297 299 300 299 299 298 297 298 299 299 299 300 299 296 301 298 299 298 297 298 299 298 300 300 298 298 298 298 298 298 297
302 302 302 302 302 302 302 302 302 303 303 302 302 302 302 301 300 300 299 299 300 301 301 300 299 298 298 298 298 297 298 299 300 300 301 300 300 300 298 298 302 303 304 302 300 297 294 296 301 302 302 302 302 297 300 296 300 302 300 300 300 299 298 299 299 299 299 300 298 298 299 300 298 298 298 300 300 302 302 300 300 301 301 300 300 301 300
302 302 302 302 302 302 302 302 303 302 302 302 301 302 301 301 300 299 299 300 300 301 300 300 295 298 298 298 298 297 298 299 300 301 301 299 299 297 297 298 302 302 295 294 294 295 299 302 300 297 302 302 300 293 294 298 302 302 302 301 301 300 299 299 300 300 299 299 300 300 299 299 299 300 298 299 300 299 299 299 300 300 300 300 300 302 302
302 302 301 301 302 302 303 302 302 302 302 302 303 302 301 301 300 300 300 300 300 300 300 298 295 295 296 297 297 297 298 299 300 301 302 302 302 302 299 299 301 298 291 296 300 300 301 302 300 300 299 299 298 290 291 300 301 301 301 301 300 303 300 300 300 301 301 301 300 300 300 299 299 299 299 299 298 299 299 299 298 299 299 300 300 299 299
303 303 302 302 301 301 302 302 302 302 301 301 302 302 302 301 301 299 299 299 299 299 299 298 298 298 298 298 298 297 298 299 299 299 299 300 303 304 304 302 299 294 291 297 300 301 301 301 300 295 289 290 290 290 297 300 301 303 305 301 301 301 301 302 301 300 301 304 304 305 305 300 303 304 304 301 300 301 300 300 302 302 301 302 303 302 302
303 303 302 302 302 301 301 301 301 300 301 302 302 302 302 301 301 300 300 299 298 298 297 298 298 298 299 299 298 299 300 301 301 300 298 297 297 298 303 296 298 296 295 294 300 301 300 300 295 288 289 289 289 291 300 300 301 301 303 303 302 301 301 301 302 302 301 302 301 302 301 301 302 300 300 299 296 299 301 301 301 303 301 302 301 301 302
303 303 303 298 301 302 302 302 302 302 301 301 301 300 300 300 300 300 300 299 298 299 299 299 299 299 299 300 300 301 301 302 302 302 301 300 298 300 301 295 297 294 291 293 299 300 300 289 287 288 288 289 289 296 299 299 298 299 300 301 304 300 301 301 302 304 304 304 304 305 305 306 305 304 305 303 303 302 300 296 296 301 301 301 303 301 301
303 303 303 302 302 302 303 303 302 302 300 299 298 298 299 300 300 300 300 300 300 300 300 300 300 299 300 300 300 299 299 299 300 301 301 301 300 297 293 292 291 289 293 298 298 299 295 290 288 288 288 288 290 299 299 299 298 298 299 301 301 301 301 301 302 302 302 304 303 300 296 298 301 302 300 302 303 302 301 300 301 301 300 297 297 295 295
302 302 302 302 302 302 302 302 302 301 300 298 298 298 299 300 300 300 301 300 300 301 301 301 301 300 301 301 301 301 301 299 296 298 301 300 300 299 298 297 295 290 292 293 293 290 288 288 288 288 288 288 295 299 299 299 299 300 301 301 301 302 303 303 302 305 303 302 302 302 299 298 299 298 298 298 298 299 300 298 296 297 299 299 299 299 300
303 302 302 303 302 302 301 301 300 299 300 300 298 298 299 300 300 300 300 300 300 300 301 303 303 303 302 300 301 302 301 301 300 298 301 301 300 300 300 294 289 289 294 299 299 294 288 288 288 288 288 289 298 299 300 300 301 299 301 301 301 302 305 304 303 302 301 301 300 299 299 299 301 300 299 298 297 298 296 298 300 298 297 297 297 296 296
303 303 302 302 301 301 301 300 300 300 300 300 300 299 300 299 297 298 299 300 301 300 301 301 302 303 303 302 302 303 302 302 302 303 301 301 301 301 299 298 296 292 294 300 299 295 288 287 288 288 290 298 299 299 299 300 301 301 303 303 301 305 302 297 294 295 300 302 302 300 301 301 303 298 298 298 298 298 297 297 295 293 291 293 294 294 295
301 301 301 301 301 302 302 302 302 301 301 301 301 300 300 299 298 297 299 299 300 298 301 300 301 303 302 302 302 302 302 302 300 297 300 301 301 296 295 297 297 294 298 298 298 295 294 295 295 292 295 298 299 299 298 299 300 300 298 302 302 303 301 298 298 302 302 301 301 301 303 301 300 301 299 299 297 299 298 296 298 296 296 296 296 294 296
302 303 303 302 302 302 302 303 303 303 302 301 300 299 299 299 298 298 298 293 299 300 299 299 298 300 301 302 300 300 300 300 298 299 297 299 300 299 296 293 297 296 297 298 300 299 297 297 293 290 293 298 298 298 295 295 299 299 303 298 297 300 299 301 298 298 299 299 298 298 299 298 299 298 298 298 297 297 296 296 296 296 295 296 297 294 296
Wind_Speed
14 15 16 17 18 17 16 18 18 19 20 20 16 8 14 11 7 5 8 11 6 8 6 8 14 11 12 12 12 11 11 11 12 15 16 14 16 16 15 14 12 15 15 14 14 13 12 13 14 14 13 13 11 10 10 9 8 9 9 9 10 11 11 11 11 10 8 8 8 8 8 8 7 7 6 5 5 6 5 6 5 7 9 9 9 9 9
13 13 15 15 17 17 19 19 17 16 16 18 18 11 13 15 10 9 5 9 8 9 11 11 12 15 14 13 12 12 13 13 12 13 14 15 15 13 13 14 15 15 15 15 14 13 13 15 15 14 13 11 10 11 11 10 10 9 8 9 10 11 11 11 11 11 11 8 9 8 8 8 7 7 6 6 6 7 7 7 6 7 8 8 8 9 9
11 10 12 14 14 13 17 19 18 17 14 18 20 14 9 9 10 11 11 5 5 7 8 9 16 14 14 13 14 13 15 15 13 14 14 14 12 12 14 14 14 12 14 16 16 15 14 15 15 14 12 12 11 10 9 9 10 9 10 9 9 10 11 11 12 11 10 10 9 9 8 7 7 7 8 6 7 7 7 7 7 7 6 7 7 8 9
8 12 15 15 14 15 15 15 17 17 15 14 12 12 10 10 10 9 9 5 3 8 11 12 12 15 15 15 13 13 12 15 15 16 15 15 12 15 14 13 13 13 13 15 18 16 16 15 14 14 13 12 12 10 10 9 9 10 10 9 10 10 10 11 11 11 10 10 9 9 8 9 8 7 7 8 8 8 7 7 6 6 5 6 7 7 6
6 9 11 10 10 10 12 11 15 18 15 13 14 16 16 13 7 8 5 9 10 11 10 11 11 13 13 13 13 13 14 15 16 14 15 15 14 13 15 15 15 15 14 14 14 15 15 14 13 14 13 13 11 12 11 9 7 10 11 10 10 10 10 10 11 9 10 9 9 9 9 8 7 7 7 8 8 7 7 6 6 6 6 6 6 6 7
5 11 10 3 4 9 8 4 7 15 13 16 15 12 13 13 10 6 7 6 12 11 9 12 12 13 12 11 11 11 11 12 14 14 15 15 14 14 14 15 16 15 14 13 12 12 12 12 12 12 10 10 11 11 11 9 6 5 11 10 9 10 10 10 10 9 9 9 10 10 9 8 8 7 7 7 6 5 6 6 6 6 5 5 6 8 8
6 6 4 3 5 7 4 8 10 8 15 17 16 12 13 14 14 12 10 14 15 13 11 10 8 8 11 9 10 13 14 12 13 14 17 17 16 16 16 15 14 13 14 15 14 13 11 10 9 10 8 8 10 12 11 11 10 10 9 9 10 9 9 9 9 8 9 9 9 9 8 7 7 7 6 5 6 4 5 5 5 5 5 6 7 7 7
3 5 6 6 6 3 5 7 9 8 10 5 12 15 13 16 13 15 13 10 12 11 10 12 9 10 12 9 8 9 12 15 14 14 16 19 19 15 15 17 16 17 16 15 15 13 12 12 10 10 11 10 10 11 11 11 9 9 9 8 10 9 9 8 8 8 9 9 8 8 8 7 7 7 6 5 7 7 7 6 6 6 7 7 7 6 7
5 6 7 4 5 1 5 5 5 4 6 5 6 4 13 12 13 15 13 11 14 9 13 12 13 14 12 9 8 9 14 15 16 18 17 17 17 17 15 16 17 16 15 15 14 13 12 12 12 9 9 10 10 10 10 11 11 9 8 8 8 8 11 8 9 9 9 9 8 8 7 8 8 7 6 8 7 6 6 6 6 6 6 6 6 6 7
3 5 6 6 3 4 5 6 4 3 4 6 4 4 6 10 13 13 13 13 16 12 16 15 12 11 11 10 10 12 15 15 17 16 17 17 17 15 16 16 16 16 16 16 15 14 15 13 11 10 8 9 10 10 9 10 11 11 9 8 7 8 9 8 8 8 9 9 9 8 8 7 7 7 7 5 5 5 7 7 7 6 6 6 6 6 6
5 4 4 5 5 2 3 5 3 4 5 6 3 5 9 6 9 13 14 13 16 17 16 17 15 10 9 10 11 14 16 17 17 16 16 16 13 14 16 19 19 17 16 17 16 16 16 15 13 11 10 10 10 9 9 9 10 9 8 8 8 9 9 9 8 8 8 8 8 8 8 6 6 7 6 5 5 5 5 6 6 6 6 6 5 5 5
4 5 4 5 1 0 2 2 4 4 5 4 5 10 8 6 5 7 13 12 17 16 15 15 12 11 6 11 13 15 17 16 15 16 16 16 15 16 17 16 18 18 17 16 16 16 16 15 15 14 13 11 10 10 9 8 9 8 7 7 9 9 8 8 8 7 6 7 7 8 8 7 7 6 5 4 4 5 5 5 5 5 5 6 6 5 5
6 5 3 2 1 0 3 2 2 3 4 6 8 10 3 4 6 9 4 8 17 15 15 13 10 11 3 12 18 19 20 18 16 16 16 17 17 18 17 16 15 15 15 16 16 16 14 14 14 14 13 12 10 10 11 10 9 7 8 9 9 9 8 8 9 8 7 7 7 7 7 6 5 4 5 5 5 6 6 5 4 4 5 4 5 6 5
6 6 5 4 2 4 5 3 4 2 5 7 8 2 6 6 7 10 13 9 16 17 17 12 9 6 16 22 20 21 20 19 18 17 18 17 17 16 15 16 16 15 15 15 16 15 13 14 10 8 12 13 13 12 12 11 10 9 10 10 10 9 9 9 9 8 8 8 8 6 6 5 5 5 4 5 4 5 4 3 3 3 3 3 5 5 6
3 3 5 5 5 2 5 7 4 2 1 1 3 6 5 5 7 7 14 9 14 15 13 9 6 17 18 20 21 20 20 21 20 19 19 17 18 18 17 17 16 15 15 16 15 13 13 13 13 12 13 15 13 11 12 11 10 10 10 10 11 11 10 10 9 9 8 7 6 5 5 5 5 6 5 5 5 4 4 3 4 3 3 3 3 4 4
4 4 6 2 2 8 6 7 2 3 0 2 4 6 3 5 5 10 1 7 13 13 10 10 11 16 16 17 21 20 21 21 19 17 16 16 17 18 19 18 17 17 17 15 14 14 12 11 11 13 13 13 13 13 14 11 10 10 11 11 11 11 9 10 10 9 9 7 7 6 6 6 6 6 6 6 6 6 6 5 4 4 3 4 3 4 4
3 1 3 6 7 9 6 5 7 7 4 2 2 3 5 5 8 8 10 11 11 4 11 10 14 16 15 18 20 22 20 19 17 16 16 17 18 17 16 17 17 17 18 17 16 15 13 13 12 12 12 14 15 15 13 12 12 12 11 11 10 10 10 10 9 9 8 7 7 6 5 4 4 4 4 3 3 3 3 3 3 3 4 4 4 5 4
9 7 6 3 6 7 7 4 5 7 6 4 4 6 5 6 7 6 7 8 11 9 11 10 13 15 17 18 19 18 17 18 16 15 15 16 16 15 15 14 15 17 16 17 16 16 15 14 13 11 12 13 14 14 13 12 12 12 12 11 10 10 11 9 9 11 10 9 8 7 6 5 4 3 3 3 3 3 3 2 2 4 3 3 4 4 5
2 3 3 5 5 5 5 4 5 4 2 4 3 3 4 6 5 6 4 7 8 8 8 12 14 19 19 18 17 15 14 16 16 17 17 16 16 16 18 17 15 15 16 16 16 16 15 13 13 13 14 12 13 12 12 12 12 13 11 11 10 9 9 10 9 9 8 7 7 6 5 4 4 3 5 7 8 8 6 3 3 3 2 3 4 4 4
2 4 5 6 3 1 1 3 4 5 4 3 4 3 3 4 6 5 6 4 5 7 9 15 17 18 20 19 17 16 13 15 17 17 17 16 14 12 14 16 17 16 16 17 17 16 13 13 12 13 13 13 14 13 13 13 12 11 11 10 10 11 10 9 8 9 8 7 8 8 9 9 7 5 7 7 7 6 5 5 5 4 5 5 6 5 3
5 9 7 5 2 2 3 5 6 5 4 4 4 5 5 5 6 7 6 5 4 3 8 17 17 18 19 20 19 18 14 15 15 16 16 16 16 15 15 14 16 14 14 16 16 16 13 13 13 12 13 13 14 14 13 13 12 12 10 10 10 11 9 8 8 8 7 8 9 8 9 9 8 7 5 5 7 6 6 4 4 6 6 5 5 5 5
1 1 1 5 2 2 4 1 4 5 5 4 5 4 5 4 6 6 8 8 8 7 10 13 17 19 18 19 19 19 15 16 18 17 16 16 17 16 15 13 14 15 14 18 17 15 13 13 13 13 13 13 13 13 13 13 12 11 10 10 10 9 9 8 8 7 7 8 9 8 7 8 9 8 13 13 8 6 4 7 12 13 10 5 3 4 6
2 3 2 4 3 2 3 5 3 4 4 5 5 5 3 4 5 7 8 9 8 9 9 9 15 16 16 18 18 18 16 14 14 15 18 18 17 15 15 15 14 13 14 16 15 15 13 12 13 13 13 13 13 13 13 13 13 12 11 9 8 8 8 7 7 7 7 8 8 8 8 8 7 8 6 7 11 11 9 7 8 9 9 10 13 10 6
5 4 1 2 1 2 2 2 3 3 3 4 5 6 5 4 6 5 7 7 7 7 8 9 14 18 18 17 18 19 16 15 16 16 16 15 15 15 14 15 17 18 17 16 16 15 13 13 14 13 12 13 13 13 13 13 12 10 10 9 9 8 7 7 8 8 8 8 8 8 8 7 7 6 6 7 6 7 7 8 8 9 10 10 9 9 10
2 3 3 3 2 3 3 2 2 4 3 3 7 6 4 6 5 6 7 7 7 7 7 7 14 14 19 18 17 16 14 14 15 16 16 15 17 16 16 17 18 18 16 15 14 14 14 13 13 13 13 13 13 13 13 12 12 10 10 9 9 8 9 9 8 9 9 8 8 8 8 8 7 6 7 6 7 5 4 4 5 6 7 7 7 7 7
2 2 1 3 5 2 1 3 5 3 5 3 7 7 10 10 5 7 7 7 7 7 8 8 13 14 14 15 15 16 15 15 14 15 15 15 15 15 17 18 17 15 15 15 14 14 14 15 14 13 13 13 13 13 13 12 11 9 9 9 9 8 8 8 9 8 8 8 8 8 7 8 7 7 7 6 6 6 6 3 2 1 2 3 3 6 3
6 7 6 5 3 4 3 2 4 10 8 5 6 6 7 8 5 5 7 6 6 6 6 9 11 11 11 12 14 15 16 14 12 13 14 15 16 16 16 15 16 16 16 15 14 14 15 13 12 13 13 13 12 11 11 11 10 9 9 9 9 7 10 10 8 8 8 8 8 8 7 7 7 7 6 7 7 7 7 6 5 5 3 1 3 5 3
1 3 5 3 3 2 6 7 6 5 5 6 5 5 6 6 7 8 7 7 7 8 9 8 9 13 12 12 13 15 13 13 10 7 9 9 12 13 15 17 17 16 15 14 14 13 14 13 13 12 12 12 12 11 12 10 9 9 10 9 9 8 6 7 8 7 7 7 7 7 7 7 7 7 7 7 7 7 7 7 6 6 5 4 3 6 8
5 5 1 4 2 2 5 6 5 5 5 5 6 5 6 7 8 8 8 8 8 10 9 8 8 9 11 11 12 13 12 10 11 10 9 11 12 11 13 16 16 15 14 14 16 14 14 14 13 13 12 12 11 11 11 10 9 9 9 9 9 8 7 6 7 6 6 5 5 5 5 6 6 7 7 6 5 5 5 5 6 6 6 6 4 3 2
4 2 1 4 2 2 3 7 6 5 4 4 5 6 6 6 6 7 7 9 8 9 8 8 9 7 8 11 11 13 13 12 11 9 8 8 11 11 12 14 15 14 14 15 15 13 14 14 14 14 12 11 11 11 11 9 9 10 10 9 8 8 7 7 6 6 5 5 7 9 6 5 4 4 3 4 4 4 3 3 1 1 8 8 6 5 6
6 5 5 2 1 2 6 8 5 5 4 4 4 5 6 6 6 7 7 6 6 9 9 9 9 10 10 12 12 12 11 11 11 10 11 12 12 12 13 14 14 14 14 14 14 13 13 13 12 12 11 11 11 11 11 9 9 10 9 8 6 7 11 9 7 7 7 7 7 6 4 4 4 4 4 3 3 3 4 3 2 3 1 4 6 7 6
2 2 2 2 9 3 6 5 4 4 4 3 4 4 5 7 7 7 5 5 6 9 11 11 10 10 9 11 13 13 12 11 10 7 7 9 11 12 11 11 13 14 14 14 12 12 12 12 12 11 11 11 11 11 10 9 9 9 8 7 7 7 7 8 6 8 6 5 5 4 3 4 4 3 3 3 3 4 4 4 3 1 3 0 1 3 5
4 5 2 3 4 5 5 4 3 4 2 2 3 4 5 5 5 5 6 6 7 7 8 9 9 9 8 10 14 14 13 12 10 10 10 11 10 8 9 11 12 13 12 11 11 11 11 12 11 10 11 12 11 11 10 9 9 8 8 7 7 7 5 4 9 7 6 5 4 4 3 4 4 3 3 2 3 3 2 3 2 1 3 0 2 4 7
7 5 7 6 6 7 3 3 3 4 5 6 4 4 5 5 5 5 5 6 7 9 9 10 9 9 8 13 14 14 13 14 13 13 13 12 11 10 10 8 7 11 11 11 11 9 9 10 10 9 11 11 11 9 10 10 8 8 8 8 8 7 6 7 9 6 6 5 3 3 4 5 4 3 3 1 2 2 2 3 3 0 2 1 1 5 8
2 4 4 7 7 4 7 4 3 4 5 3 3 5 5 4 4 5 5 7 9 9 10 11 11 9 10 13 14 13 13 13 11 12 12 13 12 9 6 5 5 9 10 9 8 8 9 10 9 9 10 10 10 8 8 8 8 8 9 8 8 7 6 7 6 6 5 3 4 4 4 4 4 4 5 3 2 1 3 0 0 2 2 2 1 5 5
5 5 8 8 7 7 6 4 4 4 4 2 2 4 3 3 5 6 7 8 8 10 11 11 11 10 10 10 12 15 15 12 12 11 11 10 10 9 9 8 7 9 9 10 9 10 10 8 9 10 7 8 8 8 8 8 9 9 8 9 8 6 7 7 6 6 4 4 5 3 4 3 1 2 2 2 2 3 4 5 4 3 3 3 5 4 6
6 7 7 7 6 6 6 5 4 3 4 4 5 4 4 4 4 5 6 7 8 9 11 11 11 12 10 8 9 10 12 13 12 12 12 10 8 6 8 7 7 8 8 8 8 11 11 8 10 10 7 6 7 7 6 8 8 9 9 8 7 7 7 6 6 6 5 4 6 3 4 3 1 3 2 2 2 2 2 3 5 5 4 3 2 1 5
8 7 6 5 4 4 6 6 5 5 5 6 5 5 4 4 5 6 6 5 5 9 10 11 11 11 11 10 10 11 12 12 12 12 12 10 7 8 7 7 7 7 7 6 8 12 10 11 12 7 7 6 7 6 7 7 14 10 8 7 7 7 7 5 6 6 4 4 5 4 3 4 2 2 3 3 2 3 2 2 2 2 1 2 3 3 3
6 5 5 4 4 5 4 5 6 7 6 6 5 6 6 5 6 6 7 6 5 6 9 9 11 11 11 13 12 11 12 11 12 13 12 10 7 7 5 4 6 4 5 4 1 12 12 12 9 7 7 6 7 7 7 6 10 9 8 7 6 6 6 5 5 6 5 4 5 5 5 4 4 4 4 5 4 4 5 4 3 2 1 1 1 3 3
6 5 6 5 5 4 4 5 7 8 6 6 7 7 7 6 6 5 6 7 5 6 8 8 10 11 10 11 13 11 12 12 12 13 13 12 9 6 3 4 5 7 3 7 11 11 12 15 11 7 7 7 7 6 5 3 3 6 7 6 6 7 6 5 5 5 5 4 5 3 3 5 4 3 3 3 4 4 3 3 5 4 3 3 3 4 4
5 5 5 5 5 4 5 4 5 6 7 6 7 7 7 7 7 7 7 7 6 6 8 8 8 8 9 11 10 11 12 11 12 12 12 12 10 8 7 7 8 7 5 9 11 11 13 11 7 6 8 8 6 8 5 3 2 2 6 5 6 7 6 6 6 5 4 3 5 5 4 3 4 5 3 2 2 2 2 3 3 2 3 3 3 3 3
4 5 5 5 4 5 6 5 4 5 7 7 7 8 8 8 8 9 8 7 7 7 8 9 9 10 10 10 10 10 10 10 11 12 12 10 7 6 7 7 8 6 10 12 11 11 9 8 6 5 5 9 6 13 8 3 2 3 4 4 4 4 6 4 4 4 6 4 3 4 5 4 3 3 4 3 3 3 3 3 3 3 3 4 4 3 2
3 4 4 4 5 4 4 5 5 5 6 6 6 7 7 8 9 9 9 10 9 8 8 10 11 11 10 11 11 10 10 9 10 10 9 6 3 4 6 6 3 9 13 10 10 8 8 5 6 4 5 11 10 14 9 4 3 5 5 5 5 3 5 5 4 3 4 5 5 4 5 5 5 4 3 4 4 5 5 5 5 5 4 4 4 5 5
3 3 4 4 5 4 3 5 5 4 6 7 6 7 7 7 8 9 9 9 10 10 10 9 9 9 10 11 11 10 9 9 9 9 9 8 5 5 4 4 8 12 16 10 9 8 6 5 6 5 11 18 18 15 7 5 5 3 2 5 5 3 3 3 4 4 3 2 1 1 2 1 2 2 2 3 3 3 3 3 3 3 3 3 3 3 3
3 3 3 4 4 4 3 5 7 6 4 5 7 8 7 7 7 8 9 10 10 10 10 11 11 11 10 9 9 10 9 9 8 10 10 9 8 7 5 6 11 10 11 12 8 7 5 5 7 12 14 19 17 14 9 6 4 2 2 2 4 4 2 2 2 2 2 3 4 3 3 3 4 5 4 5 4 3 2 3 2 2 1 2 2 2 3
4 3 4 2 3 7 7 7 7 7 6 5 7 9 8 7 8 8 8 9 10 10 11 10 10 11 10 10 8 9 9 8 8 8 7 9 8 5 7 10 8 8 11 12 7 6 5 11 14 14 18 18 14 11 9 7 5 3 4 3 2 3 4 3 2 2 1 2 1 1 1 2 2 2 3 3 2 2 3 4 4 3 3 3 2 2 3
4 4 3 3 5 7 6 6 6 8 8 6 6 6 6 7 7 7 7 8 8 9 10 10 11 11 11 11 10 10 10 9 8 7 8 8 3 5 12 13 10 12 8 6 5 5 7 10 13 17 17 16 14 8 8 7 7 7 6 5 4 4 3 4 3 3 2 2 1 2 2 2 3 3 2 2 1 1 1 1 1 2 3 4 4 5 5
3 4 4 3 3 6 6 5 6 6 6 6 6 5 6 8 8 7 7 7 7 7 8 8 9 12 12 11 10 10 9 11 10 10 8 6 7 9 8 7 9 10 9 4 7 11 16 15 15 15 17 16 11 7 7 8 7 6 5 6 4 3 2 2 2 2 2 2 2 3 3 4 4 5 5 4 4 3 3 3 3 3 3 2 2 2 2
2 4 4 3 3 5 5 4 4 5 6 7 7 6 6 6 7 8 6 5 6 6 7 7 8 10 11 12 13 10 10 10 9 8 8 8 9 8 8 10 13 13 8 6 7 7 14 18 14 14 15 12 8 6 5 5 4 4 3 3 3 2 1 2 2 3 3 3 4 4 3 3 3 3 3 5 6 5 5 4 3 2 0 2 3 3 3
4 4 4 4 4 5 4 3 3 4 6 6 6 6 6 6 5 6 7 7 5 1 1 5 6 9 11 10 11 12 12 12 11 8 10 10 10 9 8 8 8 10 8 6 10 7 3 10 17 18 14 9 7 6 4 4 3 3 3 3 2 1 1 1 1 3 2 3 3 3 2 1 1 0 1 2 3 4 4 4 4 6 8 7 5 3 3
4 3 3 4 4 2 2 2 3 3 5 6 6 6 7 6 6 4 5 7 9 6 5 2 0 1 4 5 5 8 8 9 8 9 8 8 9 10 10 8 8 8 5 4 7 7 7 6 4 5 9 8 7 6 5 4 4 4 3 1 1 2 2 1 1 1 2 2 2 2 2 2 2 3 3 3 3 2 2 2 2 2 2 3 4 4 3
4 4 3 3 3 3 3 4 4 4 5 7 7 6 5 6 6 5 3 3 2 10 10 9 8 7 4 5 3 4 5 6 6 8 6 7 8 9 9 11 8 7 7 4 5 6 8 8 9 10 8 6 6 5 5 5 5 4 2 3 3 2 3 3 2 3 3 4 4 4 4 3 3 3 3 3 4 4 5 5 5 5 7 5 5 5 5
Wind_Direction
220 186 202 197 185 206 207 224 218 205 198 214 237 208 204 211 235 231 132 128 141 163 155 156 145 148 121 121 118 104 112 107 93 112 126 129 138 143 143 146 135 131 135 135 133 135 134 131 126 126 129 129 121 118 123 123 117 110 110 123 124 117 112 115 113 113 109 113 112 113 108 106 105 100 100 112 104 86 67 55 49 59 66 66 61 57 52
226 193 201 198 189 192 203 215 219 207 211 216 229 221 200 215 221 241 222 194 179 184 167 171 134 124 125 121 122 125 128 125 121 126 134 141 145 149 140 135 131 134 135 129 131 136 137 132 131 128 127 122 124 132 136 136 134 139 142 132 126 120 117 118 117 117 119 121 117 114 117 112 105 104 102 84 82 77 73 68 65 60 59 58 64 60 53
227 253 246 196 189 202 211 199 209 211 207 214 219 222 223 228 221 219 238 229 235 162 141 136 116 122 128 132 137 143 144 137 138 138 140 143 145 126 119 123 126 132 132 133 136 132 135 136 132 125 128 132 133 128 128 139 138 144 134 130 123 121 120 121 121 121 119 119 119 114 108 112 111 108 99 94 80 75 68 60 49 54 62 65 68 64 59
211 234 241 191 192 196 209 215 213 214 207 214 209 217 217 224 214 221 232 205 233 111 106 110 134 135 140 147 151 151 153 146 145 152 149 144 133 130 127 125 129 130 127 129 137 139 139 136 131 132 134 135 133 130 135 136 139 145 136 126 123 122 123 123 121 122 124 122 120 121 117 104 103 103 101 91 87 80 78 73 64 66 62 66 72 73 70
205 219 244 238 214 203 204 209 206 212 215 209 208 211 212 217 221 218 203 214 106 121 138 144 150 153 148 150 155 159 154 156 154 152 148 139 131 124 128 132 133 134 133 135 134 133 135 137 135 137 137 134 132 134 130 136 155 175 130 126 128 131 131 126 120 118 119 118 112 101 99 102 97 97 91 96 93 96 94 87 79 72 65 58 57 61 65
206 209 226 218 222 203 212 204 223 208 219 212 216 211 201 191 210 234 202 127 120 125 155 146 158 152 156 151 152 156 158 162 150 148 140 135 126 124 128 133 136 136 135 137 138 136 134 134 130 132 132 123 124 126 131 138 143 94 111 143 141 122 120 121 120 120 118 115 111 111 113 118 119 109 107 110 114 114 112 102 100 93 79 72 65 58 54
201 198 206 160 223 222 37 1 348 280 227 213 218 225 211 200 200 237 214 142 155 152 161 147 147 145 136 147 151 152 162 153 141 141 137 135 135 136 139 141 141 140 134 129 126 124 122 108 93 92 87 116 128 135 140 141 141 145 151 132 117 125 128 123 122 124 123 114 107 109 112 104 100 103 105 101 105 99 89 93 98 100 91 75 68 65 59
177 166 180 209 213 42 345 349 324 319 341 297 203 219 217 207 201 207 229 179 151 137 119 124 144 132 127 145 149 156 151 142 137 134 137 144 144 142 148 146 143 141 138 133 134 132 124 118 117 125 135 136 138 140 142 140 138 139 144 143 120 120 120 122 120 117 109 102 104 109 108 105 102 97 87 99 82 71 71 67 56 51 53 61 67 72 69
213 182 186 210 65 284 355 324 278 236 222 253 245 207 207 200 204 200 210 205 137 132 104 129 136 139 138 143 146 150 143 141 136 140 144 148 148 143 143 142 142 141 138 136 133 130 133 133 135 139 138 138 142 143 138 139 138 134 129 128 140 143 116 121 120 119 116 117 116 114 111 112 117 123 118 87 89 100 98 89 79 69 69 65 60 57 57
254 188 197 209 193 233 223 229 276 263 293 276 268 336 297 212 200 192 193 206 128 136 129 138 139 147 144 157 160 153 148 130 135 142 144 147 147 145 136 139 140 140 139 136 138 136 131 125 127 138 147 139 141 138 134 136 138 137 136 138 134 112 118 124 113 113 117 124 126 125 121 119 112 93 91 102 102 105 100 100 96 96 92 82 70 59 56
196 195 223 222 232 210 327 171 184 237 286 266 221 251 256 220 219 191 194 178 133 140 141 138 145 149 170 176 168 163 149 135 142 142 144 150 148 135 138 142 141 140 138 139 137 134 132 133 141 150 150 135 133 131 133 138 133 132 139 136 128 123 116 112 112 113 117 118 118 115 114 114 96 93 90 88 94 92 103 114 115 112 104 97 94 78 72
224 224 211 228 278 162 229 145 207 196 226 228 189 215 229 178 241 251 191 170 136 141 147 142 161 170 180 179 166 160 148 139 142 141 144 146 140 138 143 144 140 141 142 141 137 137 139 142 147 147 144 136 131 131 130 120 116 121 124 114 108 107 108 108 106 103 103 109 110 117 118 103 106 118 133 131 134 126 112 105 110 118 120 115 110 102 84
219 234 235 240 149 21 127 118 333 227 198 203 203 211 183 350 221 214 213 177 139 144 151 159 180 192 251 144 145 148 147 143 142 141 145 145 147 146 148 142 140 143 147 140 137 139 139 142 145 146 139 137 137 131 126 124 120 104 98 99 98 95 99 107 113 108 93 80 77 77 81 90 87 76 71 75 69 74 75 82 95 104 116 122 122 120 112
215 205 226 238 85 145 144 151 153 213 198 201 206 79 318 294 320 213 196 195 147 159 164 170 193 135 112 128 139 145 148 144 146 145 146 148 148 143 137 137 146 145 138 135 136 138 142 144 120 119 146 120 97 103 104 107 105 101 100 101 102 102 100 96 94 92 88 86 86 86 92 98 99 96 99 97 95 94 114 130 131 129 127 124 130 132 134
243 212 231 222 227 166 191 138 134 126 232 91 341 307 325 327 328 242 187 203 141 159 154 171 123 118 130 137 141 140 140 145 148 149 153 154 144 137 138 148 148 137 136 141 140 141 147 138 119 114 105 112 120 117 121 123 125 121 116 114 114 113 113 112 109 106 105 113 117 121 118 112 111 110 105 100 99 111 122 125 124 126 116 114 99 93 108
227 202 222 228 69 137 171 163 152 142 221 12 334 309 297 353 14 12 336 171 143 141 144 126 122 120 114 129 140 138 143 146 145 147 149 136 128 136 147 149 140 139 143 140 142 146 139 135 136 137 132 131 133 132 133 138 132 131 129 128 126 128 130 129 130 131 132 128 122 122 124 121 121 128 132 142 151 156 164 157 156 142 134 120 112 102 93
229 336 70 110 138 124 122 103 102 119 127 31 358 2 18 18 26 25 38 44 53 84 121 117 134 125 127 135 145 142 145 145 141 139 141 135 138 145 153 145 143 148 145 144 143 142 142 140 134 135 138 133 133 136 138 140 144 143 139 134 135 136 134 131 132 131 126 125 122 114 112 112 111 114 122 128 122 135 128 125 128 130 131 129 114 107 93
94 79 82 84 106 123 118 125 109 127 106 55 8 16 49 28 60 52 66 97 131 172 131 148 136 127 124 137 144 141 144 144 133 125 124 134 142 149 143 140 148 144 145 143 143 137 137 140 138 136 135 138 137 135 142 146 146 138 133 136 139 135 134 136 133 128 125 124 124 129 127 132 133 130 128 132 128 124 116 100 108 111 95 97 99 98 102
173 95 145 121 107 107 124 113 96 101 110 72 30 57 48 55 70 86 78 120 135 135 143 127 123 130 125 125 137 134 142 134 132 135 139 150 160 158 147 140 136 142 147 145 138 136 139 138 135 136 136 136 135 140 144 142 135 138 141 142 137 135 134 131 129 125 122 116 117 120 123 125 128 105 62 52 38 27 19 36 74 62 75 97 100 107 103
251 101 45 14 17 261 175 130 141 132 121 129 98 68 72 72 65 69 101 101 117 120 130 123 130 135 137 135 137 147 144 139 139 145 150 154 159 156 147 144 148 151 150 143 137 139 137 135 136 137 137 139 142 141 138 137 138 138 136 136 138 138 133 127 126 126 120 116 90 63 45 37 27 55 80 65 54 42 32 13 351 76 59 39 37 33 54
76 103 115 158 141 284 132 67 54 90 103 123 121 104 104 110 107 103 121 111 109 159 112 125 133 136 140 137 143 147 151 150 151 153 157 156 153 153 159 156 153 151 144 144 143 135 135 137 139 139 140 142 142 140 141 141 140 139 140 143 135 132 131 130 117 122 129 102 95 92 77 67 57 35 32 83 88 73 39 10 18 42 60 41 41 63 43
340 66 76 307 216 160 117 104 88 78 89 116 117 121 124 112 106 113 114 132 164 124 122 134 135 140 147 148 147 152 154 159 159 158 155 153 150 157 159 150 149 156 159 127 131 138 139 141 141 141 140 140 142 144 142 140 141 140 140 137 136 132 127 125 134 134 116 107 107 103 99 92 81 64 47 49 50 83 76 41 56 59 69 72 39 74 83
124 177 110 42 63 28 11 150 116 100 95 101 111 122 116 114 116 118 116 111 120 127 135 145 142 136 140 144 148 151 157 162 159 158 156 153 156 155 153 142 132 121 115 127 140 137 140 140 141 142 142 143 143 140 140 141 143 142 142 137 132 129 131 143 133 117 117 121 122 116 111 109 102 103 99 65 58 61 72 73 78 80 83 70 58 51 68
95 74 94 103 241 118 205 94 88 115 95 103 106 92 116 109 114 126 124 132 141 143 153 147 135 140 141 149 152 154 158 160 161 161 158 151 143 139 135 134 135 136 139 141 142 139 140 142 142 143 143 144 140 142 143 143 146 145 143 137 135 140 140 125 118 125 122 118 121 124 125 127 124 120 109 99 74 43 49 58 66 75 76 75 71 69 59
60 22 55 42 80 126 100 115 132 100 79 77 77 71 92 126 112 119 135 132 139 148 162 147 128 142 146 152 154 155 155 160 160 158 152 147 148 147 141 139 140 141 142 142 140 141 142 143 144 144 144 143 144 144 145 147 149 148 145 141 142 135 130 137 133 120 125 131 132 135 137 134 135 131 123 119 112 106 59 39 48 63 73 85 96 86 79
101 108 48 131 142 142 101 100 118 128 87 75 81 69 54 45 67 127 123 145 144 153 163 136 136 139 145 149 149 145 154 167 162 158 153 154 151 146 144 143 141 141 141 140 140 141 143 143 144 145 141 143 143 144 148 150 148 144 144 140 129 132 145 142 131 135 140 141 141 140 144 145 144 138 135 132 133 133 133 134 105 54 14 8 55 103 109
55 50 48 23 41 83 108 143 53 49 63 55 85 84 94 106 80 108 98 112 128 142 131 134 139 129 136 140 138 144 153 159 154 158 160 155 147 143 140 137 140 140 140 139 139 141 140 142 142 142 141 142 145 147 151 148 148 145 133 128 133 131 130 135 140 143 148 146 148 151 154 148 142 140 135 141 150 154 150 150 150 149 149 183 247 254 247
134 67 51 95 245 115 69 79 91 100 81 83 96 106 123 118 124 118 126 115 122 86 66 56 106 134 139 142 140 142 147 150 149 132 123 132 136 137 139 140 139 138 137 136 134 133 139 142 142 141 141 143 146 150 147 148 140 130 133 138 138 143 152 148 146 150 146 157 162 157 150 147 147 142 152 161 174 169 166 162 155 154 151 164 176 221 246
37 65 81 45 113 84 119 110 106 97 91 79 74 104 122 120 118 130 119 109 104 84 76 76 82 118 128 131 136 131 125 120 120 132 142 150 137 132 138 136 135 134 133 133 138 142 144 144 144 141 140 146 148 147 146 139 132 138 139 137 146 152 159 153 150 148 152 143 137 134 131 130 138 154 170 173 170 153 163 161 160 160 151 147 160 159 214
62 355 30 106 116 251 115 102 97 105 121 124 113 113 117 121 114 109 126 117 122 103 96 79 72 72 107 114 118 123 127 131 132 130 130 125 128 154 140 134 132 131 131 137 144 147 145 145 144 144 146 152 147 140 138 139 139 136 139 148 149 159 158 152 142 134 123 108 100 95 107 132 145 140 132 135 162 173 125 109 92 173 146 166 168 177 184
32 20 27 350 241 178 133 113 99 94 103 123 118 125 116 128 131 120 111 89 106 112 105 97 90 91 71 98 114 115 116 121 131 138 144 148 153 144 139 141 139 139 141 143 146 147 144 142 141 142 146 145 141 142 142 139 136 139 148 152 151 124 124 125 141 136 116 121 124 136 159 141 143 149 141 138 121 102 108 115 184 275 195 182 181 177 184
117 167 221 53 25 29 92 58 78 68 65 93 126 141 140 140 143 140 131 116 99 116 114 107 104 102 104 114 119 119 117 113 103 97 112 129 132 136 134 129 127 132 139 143 142 140 138 138 140 142 146 142 141 140 142 140 144 151 154 146 127 128 121 129 114 104 126 138 146 163 162 152 137 118 108 147 149 145 172 180 192 173 263 249 146 136 110
18 14 62 52 115 88 64 57 88 71 46 73 74 95 87 106 119 134 157 150 124 119 111 102 101 108 98 106 115 110 107 101 94 94 88 80 68 76 110 126 133 133 131 130 132 135 140 143 142 146 142 140 143 146 145 145 152 153 146 140 140 126 130 121 112 126 143 158 174 162 152 118 118 143 169 183 144 190 165 103 116 156 273 334 291 98 120
21 43 25 27 27 5 8 120 91 116 72 48 41 89 86 94 127 144 145 140 139 127 117 109 107 108 106 115 115 116 117 111 108 106 103 93 83 73 70 81 113 119 121 128 133 132 135 134 140 139 141 144 147 148 146 156 151 140 137 142 133 136 134 120 128 149 157 184 153 139 127 124 155 175 143 211 142 210 134 156 166 151 314 283 240 113 144
44 26 27 31 9 25 37 51 76 87 83 67 66 64 67 70 101 116 128 155 155 129 117 111 118 120 124 126 122 121 118 115 111 104 102 106 108 101 86 84 99 112 118 121 121 119 122 134 141 141 143 146 146 149 158 149 131 134 141 135 140 148 139 140 152 157 174 171 140 164 136 156 185 175 149 179 163 208 99 101 298 181 230 249 289 133 163
11 35 39 43 35 31 63 68 86 96 109 112 69 70 90 97 113 111 144 146 133 121 116 121 123 119 123 127 127 127 124 119 112 108 109 111 116 125 134 152 152 138 133 132 134 128 131 140 138 140 141 144 149 159 161 139 137 142 133 140 156 151 142 163 159 163 184 157 144 177 151 172 137 101 124 197 209 179 173 171 208 195 231 221 243 164 161
34 39 47 59 49 55 60 71 66 80 107 120 121 131 139 141 148 146 129 128 129 125 126 125 126 128 128 123 121 117 119 123 124 126 126 133 140 144 143 136 139 139 134 141 135 132 137 132 131 132 138 140 154 157 104 119 142 129 136 153 161 149 155 174 157 167 181 162 149 166 109 130 167 152 151 226 214 222 209 221 181 196 205 225 241 201 169
54 53 60 73 77 73 69 72 79 81 98 116 116 121 131 130 113 119 89 60 86 129 132 138 137 135 126 118 126 129 129 128 128 129 132 139 144 138 133 137 147 151 158 156 145 135 135 136 140 143 146 154 157 123 85 93 127 133 153 160 158 152 168 174 153 164 181 164 143 155 151 157 182 168 171 211 239 266 246 231 257 296 298 230 216 208 211
91 88 88 83 71 77 93 103 103 105 104 110 120 127 125 118 109 103 91 89 65 103 126 133 137 131 127 134 136 137 138 140 137 137 137 136 131 132 146 152 152 160 169 205 84 127 139 142 150 153 145 165 153 112 92 94 136 145 156 161 158 154 172 173 161 160 188 160 156 165 167 175 192 185 198 193 209 208 216 222 230 209 197 285 313 278 256
88 86 90 89 88 83 85 87 95 103 107 112 120 121 120 122 125 117 112 104 98 97 107 116 133 141 133 131 137 140 144 144 143 137 136 136 145 148 143 132 152 176 157 113 117 141 145 148 158 170 151 165 161 137 116 143 144 153 153 164 161 155 175 180 182 168 178 172 160 174 187 171 186 202 208 217 211 209 218 202 192 205 223 233 239 243 237
89 90 90 93 95 98 91 87 93 103 114 117 117 121 131 130 134 135 137 133 120 110 110 117 118 118 124 133 127 132 141 145 141 136 138 143 153 160 159 153 184 174 131 140 142 148 148 156 162 180 148 153 172 137 137 184 187 209 161 174 166 159 177 187 180 173 172 188 161 166 205 211 181 188 211 213 250 254 228 217 235 235 216 228 234 243 254
111 105 104 100 104 104 98 95 103 105 101 115 123 116 115 129 136 135 129 120 108 110 110 109 108 117 117 118 123 132 139 146 142 139 141 151 147 139 135 168 177 141 121 127 129 143 157 156 169 212 151 145 138 129 151 188 200 257 157 167 181 168 163 191 184 185 166 181 183 183 180 198 211 201 188 204 219 223 240 251 245 232 236 231 232 234 243
127 105 101 97 96 101 102 104 96 106 114 110 117 117 121 123 131 137 133 131 127 117 111 116 115 119 125 130 137 137 137 135 135 134 134 120 133 138 147 166 127 136 141 139 147 153 158 160 171 219 143 137 135 144 159 184 211 247 171 173 180 204 165 175 183 208 179 178 176 199 188 186 191 203 204 201 204 202 209 212 218 225 233 239 243 241 239
152 132 120 114 99 86 95 109 106 115 119 116 114 124 128 125 136 146 141 136 143 133 124 126 127 131 141 144 142 138 139 141 141 144 144 158 186 200 202 143 147 149 146 148 155 157 166 158 179 117 122 131 143 149 164 180 218 255 187 159 165 200 184 184 171 185 182 201 175 205 216 232 230 240 212 208 207 213 211 220 239 259 276 288 289 296 307
158 110 105 89 110 133 131 122 120 115 110 126 127 117 122 131 133 140 137 137 143 146 146 146 148 148 148 147 147 144 144 148 149 150 155 164 186 195 172 124 140 144 149 147 162 167 169 156 125 129 145 141 151 152 172 191 207 216 251 194 159 182 191 192 189 207 210 208 197 204 199 194 189 194 212 227 235 264 291 308 285 285 280 289 297 284 264
133 106 98 116 98 81 89 103 112 121 132 130 117 113 118 133 139 141 149 144 144 151 155 151 144 148 150 146 145 142 142 148 155 163 163 180 183 168 147 148 161 145 154 153 159 162 139 125 137 150 145 149 151 160 178 196 211 229 237 237 200 183 179 193 199 225 216 221 234 271 280 289 294 308 305 304 279 240 217 202 220 227 232 243 263 301 327
144 145 156 136 107 109 113 119 128 122 118 117 115 115 123 129 138 141 145 146 143 150 156 153 149 150 155 155 155 152 153 152 160 167 183 185 163 145 147 145 145 154 155 144 161 131 124 139 148 151 147 153 158 168 178 192 198 218 221 226 198 186 194 196 188 195 195 215 231 272 302 321 326 308 311 299 284 285 327 346 345 310 296 274 263 258 254
152 147 146 146 156 129 128 133 135 134 140 135 127 124 136 136 136 142 139 136 143 147 157 163 154 153 161 159 162 160 159 158 162 174 181 158 154 143 141 144 155 158 143 109 111 128 138 142 150 147 152 160 171 186 187 194 200 205 208 202 208 204 188 181 181 195 223 224 207 209 209 209 218 233 245 253 265 264 262 252 245 247 260 267 272 271 284
150 139 141 152 179 160 154 158 144 139 133 125 133 132 139 126 123 134 142 133 145 156 157 168 164 159 175 173 163 168 163 170 173 172 165 148 138 141 138 144 156 155 144 126 125 134 145 142 147 157 159 162 184 199 206 202 210 212 236 245 183 162 197 226 226 218 213 205 201 200 210 214 228 229 227 215 216 222 222 231 239 237 255 14 356 345 322
147 156 170 173 181 190 173 165 161 128 124 140 140 138 137 131 136 133 127 143 149 211 169 157 164 167 178 168 165 164 164 178 188 179 142 140 138 130 140 150 153 163 164 131 131 126 100 149 158 162 165 178 188 201 218 227 215 218 234 240 254 238 143 99 88 54 355 343 344 356 355 340 252 278 350 335 344 348 343 326 310 297 294 286 272 262 247
158 173 166 168 169 180 156 116 102 132 148 135 135 140 148 151 144 151 149 149 161 161 157 166 299 52 112 128 138 136 131 144 149 131 134 155 143 137 145 149 148 156 182 119 130 140 149 156 150 172 179 185 186 197 211 224 239 231 215 254 229 218 237 234 237 249 224 226 255 270 283 293 289 285 280 280 268 257 244 251 243 234 228 229 237 232 228
170 160 169 155 150 155 147 139 148 160 136 125 135 150 150 128 138 145 150 342 179 171 161 161 164 155 131 101 101 119 117 119 128 126 118 125 128 137 141 141 150 164 181 162 148 150 160 162 160 173 185 194 200 194 204 231 249 253 229 190 205 212 217 243 227 198 200 194 201 220 236 242 253 274 269 258 248 241 244 243 242 240 239 240 241 242 242